[[{"header":{"parameterUnit":"m.s-1","parameterCategory":1,"la1":30.2991,"la2":30.254,"lo1":-89.0895,"lo2":-89.0444,"dy":0.0017,"dx":0.0017,"nx":28,"ny":28,"refTime":"2024-06-05T21:00:00:Z","depth":0,"parameterNumber":2,"parameterNumberName":"U-component_of_WINDS"},"data":[0,0,0,0,0,0,0,0,0,0,0,0,0,0,0,0,0,0,0,0,0,0,0,0,0,0,0,0,0,0,0,0,0,0,0,0,0,0,0,0,0,0,0,0,0,0,0,0,0,0,0,0,0,0,0,0,0,0,-1.3561,-1.3561,0,-1.3591,-1.3592,-1.3592,-1.3544,-1.3542,-1.354,-1.3539,-1.3572,-1.3575,-1.3577,0,0,0,0,0,0,0,0,0,0,0,0,0,-1.3464,-1.3466,-1.3561,-1.3561,-1.3562,-1.3591,-1.3592,-1.3592,-1.3544,-1.3542,-1.354,-1.3538,-1.3572,-1.3574,-1.3577,0,0,0,0,0,0,0,0,0,0,0,0,0,-1.3501,-1.3466,-1.3561,-1.3541,-1.354,-1.3591,-1.3592,-1.3592,-1.3544,-1.3542,-1.3539,-1.3537,-1.3571,-1.3574,-1.3578,-1.3651,0,0,-1.3589,-1.3591,0,0,0,0,0,0,0,0,-1.3499,-1.3505,-1.3544,-1.3543,-1.3541,-1.3561,-1.3569,-1.3612,-1.3545,-1.3543,-1.3539,-1.3536,-1.3571,-1.3574,-1.3586,-1.3652,-1.3654,-1.3589,-1.3592,-1.3593,-1.3594,0,0,0,0,0,0,0,-1.3497,-1.3503,-1.3573,-1.3544,-1.3543,-1.3532,-1.3534,-1.3577,-1.3571,-1.3543,-1.3539,-1.3543,-1.357,-1.3582,-1.3586,-1.3654,-1.3589,-1.3592,-1.3595,-1.3596,-1.3782,-1.3785,0,0,0,0,0,0,-1.3496,-1.3501,-1.3572,-1.3574,-1.3513,-1.3535,-1.3538,-1.3557,-1.357,-1.3569,-1.3545,-1.3541,-1.3577,-1.3582,-1.3587,-1.3673,-1.3593,-1.3597,-1.3599,-1.3779,-1.3783,-1.3786,0,0,0,0,0,0,-1.3494,-1.3503,-1.3571,-1.3537,-1.3544,-1.354,-1.3561,-1.3559,-1.3571,-1.3572,-1.3571,-1.3559,-1.3575,-1.3582,-1.3635,-1.3673,-1.3598,-1.3602,-1.3776,-1.378,-1.3784,-1.3845,0,0,0,0,0,0,-1.3492,-1.3502,-1.3529,-1.3538,-1.3546,-1.3618,-1.3564,-1.3561,-1.3578,-1.3572,-1.3585,-1.3584,-1.3574,-1.363,-1.3639,-1.3677,-1.3604,-1.3773,-1.3778,-1.3783,-1.384,-1.3851,-1.3861,0,0,0,0,0,-1.3488,-1.3546,-1.3531,-1.354,-1.358,-1.362,-1.3625,-1.3611,-1.3581,-1.3608,-1.3609,-1.3584,-1.3668,-1.3636,-1.3645,-1.3685,-1.377,-1.3776,-1.3782,-1.3835,-1.3849,-1.386,0,0,0,0,0,0,-1.3543,-1.3547,-1.353,-1.3592,-1.3606,-1.3612,-1.3646,-1.3626,-1.3649,-1.3643,-1.3626,-1.3629,-1.3686,-1.3691,-1.3655,-1.3756,-1.3714,-1.3722,-1.3751,-1.3764,-1.3774,-1.3772,-1.3607,0,0,0,0,0,-1.3562,-1.3594,-1.3595,-1.365,-1.3658,-1.3651,-1.3668,-1.3656,-1.367,-1.3675,-1.368,-1.3695,-1.3724,-1.3744,-1.3772,-1.384,-1.3843,-1.3873,-1.3883,-1.3892,-1.3899,-1.3936,-1.3949,-1.3806,-1.3806,-1.3806,0,0,-1.3603,-1.3609,-1.363,-1.3661,-1.3671,-1.3704,-1.3656,-1.3694,-1.3718,-1.3681,-1.3731,-1.3735,-1.3751,-1.3812,-1.3839,-1.3818,-1.3939,-1.39,-1.3906,-1.3909,-1.3944,-1.3957,-1.3969,-1.381,-1.3809,-1.3808,0,0,-1.3693,-1.3701,-1.3747,-1.3757,-1.3771,-1.3766,-1.3778,-1.3786,-1.3787,-1.3837,-1.381,-1.384,-1.3891,-1.3903,-1.3917,-1.4012,-1.399,-1.4021,-1.4076,-1.4112,-1.4123,-1.4133,-1.4167,-1.4179,-1.4029,-1.4029,-1.4029,0,-1.3742,-1.379,-1.3773,-1.3812,-1.3827,-1.3795,-1.3842,-1.3853,-1.3876,-1.3887,-1.3863,-1.3927,-1.3935,-1.3999,-1.4022,-1.4034,-1.4046,-1.402,-1.4122,-1.4132,-1.4141,-1.4174,-1.4186,-1.4033,-1.4032,-1.4032,-1.4032,0,-1.3849,-1.3883,-1.3919,-1.3941,-1.396,-1.4003,-1.3993,-1.4015,-1.4001,-1.3999,-1.4051,-1.406,-1.4088,-1.4102,-1.409,-1.4165,-1.4151,-1.4125,-1.4082,-1.4159,-1.4189,-1.4201,-1.4038,-1.4037,-1.4036,-1.4035,0,0,-1.3974,-1.3987,-1.4,-1.401,-1.4023,-1.405,-1.4092,-1.4119,-1.4137,-1.4155,-1.419,-1.4234,-1.421,-1.4225,-1.4214,-1.4246,-1.432,-1.4216,-1.4216,-1.4235,-1.4403,-1.4422,-1.4437,-1.4306,-1.4308,-1.431,-1.4402,0,-1.4064,-1.4135,-1.4121,-1.4191,-1.4223,-1.4192,-1.4229,-1.4242,-1.4241,-1.4268,-1.4268,-1.4299,-1.4265,-1.4274,-1.4304,-1.4305,-1.4354,-1.4298,-1.4339,-1.4341,-1.4336,-1.4453,-1.4473,-1.4559,-1.4414,-1.4415,-1.4417,0,-1.4178,-1.4199,-1.4271,-1.428,-1.4293,-1.4326,-1.4349,-1.4376,-1.439,-1.4387,-1.4404,-1.4387,-1.4429,-1.4386,-1.4444,-1.4407,-1.4423,-1.4426,-1.4429,-1.4432,-1.4383,-1.4459,-1.4586,-1.4599,-1.4435,-1.4434,-1.4432,0,-1.4262,-1.4308,-1.4357,-1.4367,-1.4378,-1.4402,-1.4408,-1.4419,-1.4437,-1.4458,-1.4469,-1.4495,-1.451,-1.4531,-1.4522,-1.4491,-1.4582,-1.4538,-1.4582,-1.4582,-1.4602,-1.4601,-1.4733,-1.4613,-1.4613,-1.4612,-1.4612,0,-1.4363,-1.4409,-1.4395,-1.4426,-1.4476,-1.446,-1.4511,-1.4514,-1.4524,-1.4555,-1.4531,-1.4561,-1.4547,-1.4576,-1.4569,-1.4619,-1.4625,-1.4625,-1.4622,-1.4627,-1.4627,-1.4637,-1.4631,-1.4616,-1.4615,-1.4614,-1.4614,0,-1.4466,-1.4458,-1.451,-1.4516,-1.4519,-1.4556,-1.4562,-1.4591,-1.4588,-1.4627,-1.4636,-1.4632,-1.4665,-1.4658,-1.4694,-1.469,-1.4752,-1.4742,-1.4747,-1.4744,-1.4788,-1.4784,-1.4932,-1.495,-1.4818,-1.4819,-1.482,0,-1.4531,-1.4565,-1.4575,-1.4593,-1.4601,-1.4631,-1.4648,-1.4635,-1.4654,-1.4672,-1.4699,-1.473,-1.4753,-1.4808,-1.4809,-1.4837,-1.4827,-1.4877,-1.4831,-1.4835,-1.4828,-1.4826,-1.4829,-1.4886,-1.4888,-1.4889,-1.489,0,-1.4647,-1.4641,-1.4666,-1.4691,-1.4712,-1.4731,-1.4747,-1.4764,-1.4752,-1.4774,-1.4807,-1.4826,-1.4862,-1.4893,-1.4919,-1.4926,-1.4906,-1.4904,-1.4916,-1.492,-1.4922,-1.4921,-1.4771,-1.4901,-1.49,-1.4899,-1.4898,-1.4898,-1.4732,-1.4761,-1.4772,-1.4802,-1.4812,-1.4828,-1.4856,-1.4856,-1.4883,-1.4911,-1.4902,-1.4939,-1.4953,-1.4986,-1.4996,-1.5026,-1.5007,-1.5024,-1.5028,-1.5032,-1.5037,-1.4917,-1.503,-1.503,-1.503,-1.5029,-1.5029,0,-1.4846,-1.4852,-1.4879,-1.4903,-1.4926,-1.4904,-1.4922,-1.4943,-1.4976,-1.499,-1.5013,-1.5052,-1.5081,-1.5085,-1.5113,-1.5137,-1.5128,-1.5144,-1.5142,-1.5144,-1.5053,-1.504,-1.5151,-1.5151,-1.5151,-1.5151,-1.5151,-1.5151,-1.4909,-1.4957,-1.4953,-1.5006,-1.5012,-1.5048,-1.5059,-1.5074,-1.5085,-1.5128,-1.5153,-1.5155,-1.5165,-1.5194,-1.522,-1.5221,-1.5232,-1.5252,-1.5249,-1.5163,-1.5151,-1.5139,-1.5127,-1.5255,-1.5255,-1.5338,-1.5339,-1.534]},{"header":{"parameterUnit":"m.s-1","parameterCategory":1,"la1":30.2991,"la2":30.254,"lo1":-89.0895,"lo2":-89.0444,"dy":0.0017,"dx":0.0017,"nx":28,"ny":28,"refTime":"2024-06-05T21:00:00:Z","depth":0,"parameterNumber":3,"parameterNumberName":"V-component_of_WINDS"},"data":[0,0,0,0,0,0,0,0,0,0,0,0,0,0,0,0,0,0,0,0,0,0,0,0,0,0,0,0,0,0,0,0,0,0,0,0,0,0,0,0,0,0,0,0,0,0,0,0,0,0,0,0,0,0,0,0,0,0,-1.8869,-1.8868,0,-1.8779,-1.8778,-1.8777,-1.8684,-1.8683,-1.8682,-1.8681,-1.8588,-1.8587,-1.8586,0,0,0,0,0,0,0,0,0,0,0,0,0,-1.8958,-1.8957,-1.8869,-1.8868,-1.8867,-1.8779,-1.8778,-1.8777,-1.8685,-1.8683,-1.8682,-1.868,-1.8589,-1.8587,-1.8585,0,0,0,0,0,0,0,0,0,0,0,0,0,-1.8899,-1.8956,-1.8869,-1.881,-1.8804,-1.878,-1.8778,-1.8777,-1.8685,-1.8683,-1.8681,-1.8679,-1.8589,-1.8587,-1.8585,-1.8612,0,0,-1.8579,-1.8579,0,0,0,0,0,0,0,0,-1.8902,-1.8896,-1.882,-1.8814,-1.8807,-1.8741,-1.8775,-1.8721,-1.8685,-1.873,-1.8681,-1.8678,-1.864,-1.8634,-1.8622,-1.8607,-1.8603,-1.8579,-1.8578,-1.8577,-1.8577,0,0,0,0,0,0,0,-1.8907,-1.8899,-1.8833,-1.8819,-1.8811,-1.8787,-1.8777,-1.8765,-1.8697,-1.8726,-1.8719,-1.871,-1.8637,-1.8624,-1.8619,-1.8602,-1.8579,-1.8578,-1.8576,-1.8576,-1.8604,-1.8605,0,0,0,0,0,0,-1.892,-1.8903,-1.8836,-1.8831,-1.8851,-1.8787,-1.8776,-1.8764,-1.8697,-1.8685,-1.8712,-1.8706,-1.8628,-1.8621,-1.8615,-1.8641,-1.8577,-1.8575,-1.8574,-1.8602,-1.8604,-1.8606,0,0,0,0,0,0,-1.8922,-1.8915,-1.884,-1.8865,-1.8853,-1.8788,-1.8776,-1.8763,-1.875,-1.8686,-1.8673,-1.8711,-1.8626,-1.8618,-1.8613,-1.8636,-1.8575,-1.8573,-1.8599,-1.8602,-1.8605,-1.8693,0,0,0,0,0,0,-1.8925,-1.8916,-1.8926,-1.8866,-1.8853,-1.884,-1.8777,-1.8763,-1.8747,-1.8739,-1.8682,-1.8671,-1.8624,-1.8616,-1.8611,-1.8633,-1.8571,-1.8597,-1.8601,-1.8604,-1.8688,-1.8699,-1.8708,0,0,0,0,0,-1.8929,-1.8954,-1.8927,-1.8919,-1.8864,-1.8842,-1.8834,-1.878,-1.875,-1.8759,-1.8717,-1.8673,-1.8635,-1.8617,-1.861,-1.8631,-1.8595,-1.86,-1.8604,-1.8684,-1.8697,-1.8708,0,0,0,0,0,0,-1.9019,-1.8945,-1.8914,-1.8921,-1.8889,-1.8826,-1.8836,-1.8796,-1.877,-1.8763,-1.8697,-1.8685,-1.8688,-1.8659,-1.864,-1.8653,-1.8609,-1.8612,-1.8672,-1.8683,-1.8693,-1.87,-1.857,0,0,0,0,0,-1.904,-1.9028,-1.8965,-1.8977,-1.8962,-1.8902,-1.889,-1.8852,-1.8815,-1.88,-1.8758,-1.8724,-1.8703,-1.8692,-1.867,-1.8683,-1.8669,-1.8694,-1.8705,-1.8713,-1.8717,-1.872,-1.8731,-1.862,-1.862,-1.862,0,0,-1.9082,-1.9041,-1.9038,-1.8994,-1.8964,-1.8953,-1.8891,-1.8882,-1.8873,-1.8798,-1.8791,-1.876,-1.8716,-1.8721,-1.872,-1.8696,-1.8744,-1.8718,-1.8726,-1.8724,-1.8726,-1.8736,-1.8746,-1.8623,-1.8622,-1.8622,0,0,-1.9155,-1.9123,-1.9129,-1.91,-1.9055,-1.9015,-1.9017,-1.896,-1.8936,-1.8928,-1.8871,-1.8859,-1.8827,-1.8798,-1.8779,-1.884,-1.8798,-1.8835,-1.8887,-1.8892,-1.89,-1.8908,-1.8929,-1.8937,-1.8838,-1.8838,-1.8839,0,-1.9213,-1.9195,-1.9137,-1.9132,-1.9114,-1.9046,-1.9052,-1.9026,-1.8977,-1.8966,-1.894,-1.8897,-1.8863,-1.8859,-1.8874,-1.8861,-1.886,-1.8841,-1.8904,-1.8911,-1.8917,-1.8936,-1.8944,-1.8843,-1.8843,-1.8842,-1.8842,0,-1.9269,-1.9258,-1.9268,-1.9222,-1.9205,-1.9206,-1.9147,-1.9137,-1.91,-1.9062,-1.9054,-1.9011,-1.8979,-1.8975,-1.8938,-1.8966,-1.8952,-1.8916,-1.8871,-1.8933,-1.895,-1.8957,-1.885,-1.8848,-1.8847,-1.8846,0,0,-1.9396,-1.9318,-1.9323,-1.9301,-1.9246,-1.9235,-1.9232,-1.9201,-1.9193,-1.9161,-1.9156,-1.913,-1.9096,-1.9075,-1.9034,-1.9038,-1.9088,-1.9001,-1.8999,-1.9018,-1.9115,-1.9142,-1.9152,-1.906,-1.9061,-1.9062,-1.9118,0,-1.9459,-1.945,-1.9397,-1.9403,-1.9391,-1.9325,-1.9322,-1.9288,-1.9253,-1.9237,-1.9197,-1.9179,-1.9136,-1.9123,-1.9124,-1.9082,-1.9107,-1.9077,-1.9054,-1.9054,-1.9067,-1.9161,-1.919,-1.9245,-1.9125,-1.9126,-1.9126,0,-1.9531,-1.9503,-1.9508,-1.9453,-1.9446,-1.9444,-1.9411,-1.9397,-1.9356,-1.933,-1.9306,-1.926,-1.9252,-1.921,-1.9197,-1.9178,-1.9166,-1.9144,-1.9144,-1.914,-1.9094,-1.9159,-1.9262,-1.927,-1.9136,-1.9136,-1.9135,0,-1.9622,-1.9586,-1.9584,-1.9568,-1.9503,-1.9503,-1.9476,-1.9434,-1.9418,-1.9389,-1.9378,-1.9348,-1.9332,-1.931,-1.9257,-1.9231,-1.925,-1.9203,-1.9228,-1.9229,-1.9235,-1.9235,-1.9337,-1.9227,-1.9227,-1.9227,-1.9227,0,-1.9698,-1.9703,-1.9625,-1.9624,-1.9627,-1.9566,-1.9571,-1.9538,-1.9501,-1.9491,-1.9433,-1.9425,-1.9356,-1.934,-1.9298,-1.9294,-1.9287,-1.9265,-1.9254,-1.927,-1.9273,-1.9261,-1.9256,-1.9229,-1.9229,-1.9228,-1.9228,0,-1.9801,-1.9749,-1.9742,-1.9681,-1.9666,-1.9672,-1.9619,-1.9615,-1.9576,-1.9565,-1.9558,-1.9497,-1.9475,-1.942,-1.9384,-1.9356,-1.9362,-1.9342,-1.9377,-1.9369,-1.9397,-1.9395,-1.9494,-1.9504,-1.9389,-1.939,-1.9391,0,-1.9852,-1.9855,-1.9794,-1.9784,-1.976,-1.9744,-1.9728,-1.9667,-1.9653,-1.9606,-1.9608,-1.9581,-1.9557,-1.9525,-1.9477,-1.9448,-1.9427,-1.9463,-1.9422,-1.9438,-1.9427,-1.9427,-1.9427,-1.9473,-1.9474,-1.9475,-1.9476,0,-1.9949,-1.9923,-1.9902,-1.9872,-1.9854,-1.9828,-1.9798,-1.9792,-1.9725,-1.9711,-1.9688,-1.9669,-1.9632,-1.9606,-1.9571,-1.9542,-1.9498,-1.949,-1.9494,-1.951,-1.953,-1.9519,-1.9401,-1.9488,-1.9487,-1.9486,-1.9485,-1.9485,-2.0027,-2.0026,-1.9983,-1.9962,-1.9933,-1.9906,-1.9899,-1.9859,-1.9839,-1.9805,-1.977,-1.9751,-1.9709,-1.9656,-1.963,-1.9614,-1.9591,-1.9597,-1.9599,-1.9601,-1.9608,-1.9533,-1.9607,-1.9607,-1.9606,-1.9606,-1.9606,0,-2.012,-2.0089,-2.007,-2.003,-2.0013,-1.9974,-1.9938,-1.9927,-1.991,-1.9875,-1.9853,-1.9826,-1.9801,-1.975,-1.972,-1.9716,-1.9695,-1.971,-1.971,-1.9704,-1.963,-1.963,-1.9728,-1.9728,-1.9728,-1.9728,-1.9728,-1.9728,-2.0167,-2.0163,-2.0132,-2.0113,-2.0081,-2.0062,-2.0046,-2.002,-1.9992,-1.9965,-1.9944,-1.9911,-1.9869,-1.9836,-1.981,-1.9796,-1.9787,-1.9809,-1.9788,-1.9721,-1.9709,-1.9698,-1.9697,-1.9808,-1.9808,-1.9863,-1.9863,-1.9864]}]]